Starlink 32106

operational
NORAD ID: 59690 Int'l Des: 2024-086 Owner: SPXS Country: US Constellation: starlink
LEOCIRCULAR

About Starlink 32106

Description loading...

Live Position

Loading 3D Globe...

Upcoming Passes

Altitude History

Altitude vs Time

uPlot chart will show altitude changes over time

Two-Line Element Set

1 59690U 24086J 25303.72116257 -.00000389 00000-0 -46111-5 0 9993
2 59690 43.0053 66.2392 0001027 304.5540 55.5215 15.27573073 84325
Epoch: Oct 30, 2025 • Age: 19 hours

Current Status

Altitude 483.6 km
Velocity 7.63 km/s
Sub-Earth Point 29.50°N, 126.28°W
Launch Date May 8, 2024
Age 1.4 years
Type internet

Technical Details

Classification Payload
Mass 730.00 kg
Dry Mass 700.00 kg
Total Mass 730.00 kg
Length 0.30 m
Diameter 4.10 m
Span 29.00 m
Shape Box + pan
Manufacturer SPXS
Bus Type Starlink V2M
Phase Status In Orbit
Owner/State SPXS/US

Large Constellations

Loading constellations...